Asheville, NC

9:44 PM EST on November 12, 2019 (GMT -0500)
Asheville Regional

Weather History for KAVL - October, 2019

Change the Weather History Date:

Monday, October 21, 2019

  Actual Average Record
Temperature  
Mean Temperature 61 °F 55 °F  
Max Temperature 66 °F 67 °F 83 °F (1943)
Min Temperature 55 °F 43 °F 23 °F (1952)
Degree Days  
Heating Degree Days 4 10  
Month to date heating degree days 77 158  
Since 1 July heating degree days 79 215  
Cooling Degree Days 0 0  
Month to date cooling degree days 54 7  
Year to date cooling degree days 1327 859  
Growing Degree Days 10 (Base 50)    
Moisture  
Dew Point 56 °F    
Average Humidity 86    
Maximum Humidity 93    
Minimum Humidity 78    
Precipitation  
Precipitation 0.00 in 0.09 in 2.13 in (1929)
Month to date precipitation 2.28 2.00  
Year to date precipitation 44.89 37.42  
Snow  
Snow 0.00 in 0.00 in T in (1913)
Month to date snowfall 0.0 0.0  
Since 1 July snowfall 0.0 0.0  
Since 1 September snowfall 0.0 0.0  
Snow Depth 0.00 in    
Sea Level Pressure  
Sea Level Pressure 30.03 in    
Wind  
Wind Speed 4 mph (SE)    
Max Wind Speed 13 mph    
Max Gust Speed 19 mph    
Visibility 8 miles    
Events Fog    
T = Trace of Precipitation, MM = Missing Value Source: NWS Daily Summary

Daily Weather History Graph

Daily Weather History Graph

Search for Another Location

Airport or City:

Astronomy

Oct. 21, 2019 Rise Set
Actual Time 7:41 AM EDT 6:47 PM EDT
Civil Twilight 7:15 AM EDT 7:13 PM EDT
Nautical Twilight 6:45 AM EDT 7:43 PM EDT
Astronomical Twilight 6:16 AM EDT 8:12 PM EDT
Moon 12:04 AM EDT (10/21) 2:51 PM EDT (10/21)
Length of Visible Light 11h 57m
Length of Day
11h 06m
Waning Gibbous, 48% of the Moon is Illuminated
Oct 21
Waning Gibbous
Oct 27
New
Nov 4
First Quarter
Nov 12
Full
Nov 19
Last Quarter

Hourly Weather History & Observations

Time (EDT) Temp. Dew Point Humidity Pressure Visibility Wind Dir Wind Speed Gust Speed Precip Events Conditions
12:13 AM 55.9 °F 54.0 °F 93% 30.03 in 2.5 mi NNW 4.6 mph - N/A   Overcast
12:16 AM 55.9 °F 54.0 °F 93% 30.03 in 1.2 mi NNW 6.9 mph - N/A   Overcast
12:25 AM 55.0 °F 54.0 °F 96% 30.03 in 0.5 mi NNW 5.8 mph - N/A Fog Fog
12:37 AM 55.0 °F 54.0 °F 96% 30.04 in 1.5 mi NNW 4.6 mph - N/A   Overcast
12:43 AM 55.0 °F 54.0 °F 96% 30.04 in 3.0 mi NNW 3.5 mph - N/A   Overcast
12:54 AM 55.0 °F 54.0 °F 96% 29.99 in 8.0 mi NNW 4.6 mph - N/A   Overcast
1:04 AM 55.9 °F 54.0 °F 93% 30.03 in 10.0 mi North 4.6 mph - N/A   Overcast
1:09 AM 55.9 °F 54.0 °F 93% 30.04 in 7.0 mi North 6.9 mph - N/A   Overcast
1:22 AM 55.9 °F 54.0 °F 93% 30.04 in 2.0 mi North 4.6 mph - N/A   Overcast
1:47 AM 55.9 °F 54.0 °F 93% 30.04 in 4.0 mi North 4.6 mph - N/A   Overcast
1:54 AM 55.9 °F 54.0 °F 93% 29.99 in 10.0 mi North 4.6 mph - N/A   Overcast
2:06 AM 55.9 °F 54.0 °F 93% 30.04 in 10.0 mi Calm Calm - N/A   Overcast
2:36 AM 55.9 °F 54.0 °F 93% 30.04 in 10.0 mi Calm Calm - N/A   Overcast
2:54 AM 55.9 °F 54.0 °F 93% 29.99 in 10.0 mi Calm Calm - N/A   Overcast
3:54 AM 55.9 °F 54.0 °F 93% 29.99 in 10.0 mi South 3.5 mph - N/A   Overcast
4:54 AM 55.9 °F 53.1 °F 90% 29.98 in 9.0 mi Calm Calm - N/A   Overcast
5:14 AM 55.9 °F 54.0 °F 93% 30.04 in 10.0 mi Calm Calm - N/A   Overcast
5:54 AM 57.0 °F 54.0 °F 89% 29.99 in 10.0 mi Calm Calm - N/A   Overcast
6:54 AM 57.9 °F 54.0 °F 87% 30.01 in 10.0 mi SSE 3.5 mph - N/A   Overcast
7:54 AM 59.0 °F 55.0 °F 87% 30.02 in 10.0 mi South 3.5 mph - N/A   Overcast
8:47 AM 59.0 °F 55.0 °F 87% 30.07 in 10.0 mi South 6.9 mph - N/A   Overcast
8:54 AM 59.0 °F 55.9 °F 90% 30.03 in 10.0 mi South 5.8 mph - N/A   Overcast
9:32 AM 59.0 °F 55.9 °F 90% 30.08 in 10.0 mi SSE 8.1 mph - N/A   Overcast
9:54 AM 59.0 °F 57.0 °F 93% 30.06 in 6.0 mi SSE 8.1 mph - N/A   Overcast
10:18 AM 59.0 °F 57.0 °F 93% 30.10 in 1.5 mi SSE 5.8 mph - N/A   Overcast
10:54 AM 60.1 °F 57.0 °F 90% 30.06 in 1.5 mi SE 4.6 mph - N/A   Overcast
11:54 AM 59.0 °F 57.0 °F 93% 30.07 in 2.0 mi SSE 8.1 mph - N/A   Overcast
12:54 PM 60.1 °F 57.0 °F 90% 30.05 in 2.0 mi SSE 4.6 mph - N/A   Overcast
1:54 PM 61.0 °F 57.0 °F 87% 30.03 in 2.0 mi ESE 4.6 mph - N/A   Overcast
2:01 PM 61.0 °F 57.0 °F 87% 30.07 in 10.0 mi SE 6.9 mph - N/A   Overcast
2:15 PM 62.1 °F 57.9 °F 86% 30.06 in 10.0 mi ESE 6.9 mph - N/A   Overcast
2:54 PM 63.0 °F 57.9 °F 84% 30.00 in 10.0 mi ESE 9.2 mph - N/A   Mostly Cloudy
3:04 PM 66.0 °F 57.9 °F 75% 30.04 in 10.0 mi SE 10.4 mph - N/A   Mostly Cloudy
3:54 PM 64.0 °F 57.9 °F 80% 30.00 in 10.0 mi SSE 11.5 mph - N/A   Overcast
4:54 PM 64.0 °F 57.9 °F 80% 30.00 in 10.0 mi SE 9.2 mph - N/A   Overcast
5:01 PM 64.0 °F 57.9 °F 80% 30.04 in 10.0 mi SE 6.9 mph - N/A   Mostly Cloudy
5:15 PM 64.0 °F 57.9 °F 80% 30.04 in 10.0 mi SSE 8.1 mph - N/A   Scattered Clouds
5:54 PM 64.0 °F 57.0 °F 78% 29.99 in 10.0 mi SE 8.1 mph - N/A   Mostly Cloudy
6:54 PM 63.0 °F 57.9 °F 84% 30.00 in 10.0 mi Calm Calm - N/A   Mostly Cloudy
7:54 PM 62.1 °F 57.9 °F 86% 30.02 in 10.0 mi Calm Calm - N/A   Mostly Cloudy
8:54 PM 62.1 °F 57.9 °F 86% 30.01 in 10.0 mi Calm Calm - N/A   Overcast
9:06 PM 62.1 °F 57.9 °F 86% 30.05 in 10.0 mi South 4.6 mph - N/A   Overcast
9:54 PM 62.1 °F 57.9 °F 86% 30.00 in 10.0 mi SE 6.9 mph - N/A   Mostly Cloudy
10:43 PM 61.0 °F 57.9 °F 90% 30.07 in 10.0 mi South 3.5 mph - N/A   Overcast
10:54 PM 61.0 °F 57.9 °F 90% 30.02 in 10.0 mi SSE 4.6 mph - N/A   Overcast
11:34 PM 62.1 °F 57.9 °F 86% 30.03 in 10.0 mi SE 6.9 mph - N/A   Overcast
11:54 PM 62.1 °F 59.0 °F 90% 29.98 in 10.0 mi South 4.6 mph - N/A   Overcast